[[{"header":{"parameterUnit":"m.s-1","parameterCategory":1,"la1":30.2991,"la2":30.254,"lo1":-89.0895,"lo2":-89.0444,"dy":0.0017,"dx":0.0017,"nx":28,"ny":28,"refTime":"2023-08-25T03:00:00:Z","depth":0,"parameterNumber":2,"parameterNumberName":"U-component_of_WINDS"},"data":[0,0,0,0,0,0,0,0,0,0,0,0,0,0,0,0,0,0,0,0,0,0,0,0,0,0,0,0,0,0,0,0,0,0,0,0,0,0,0,0,0,0,0,0,0,0,0,0,0,0,0,0,0,0,0,0,0,0,3.7968,3.7969,0,3.8071,3.8073,3.8074,3.8023,3.8021,3.8018,3.8015,3.8121,3.8127,3.8132,0,0,0,0,0,0,0,0,0,0,0,0,0,3.7726,3.7731,3.7968,3.7969,3.797,3.8071,3.8073,3.8074,3.8024,3.802,3.8017,3.8014,3.812,3.8126,3.8132,0,0,0,0,0,0,0,0,0,0,0,0,0,3.7831,3.7732,3.7968,3.7957,3.7958,3.8071,3.8073,3.8074,3.8024,3.802,3.8016,3.8013,3.8118,3.8125,3.8133,3.8262,0,0,3.8158,3.8161,0,0,0,0,0,0,0,0,3.7825,3.784,3.7958,3.7958,3.7959,3.803,3.8026,3.8137,3.8025,3.7999,3.8015,3.8011,3.8094,3.8104,3.8132,3.8267,3.8272,3.8158,3.8163,3.8166,3.8169,0,0,0,0,0,0,0,3.7818,3.7835,3.8009,3.7959,3.796,3.7948,3.7958,3.8047,3.8068,3.8001,3.7998,3.8011,3.8094,3.8125,3.8134,3.8274,3.8158,3.8165,3.817,3.8173,3.8519,3.8523,0,0,0,0,0,0,3.7811,3.7829,3.8005,3.8012,3.7881,3.7955,3.7967,3.8011,3.8067,3.8071,3.8014,3.8008,3.8113,3.8125,3.8138,3.8291,3.8166,3.8174,3.8178,3.8514,3.852,3.8525,0,0,0,0,0,0,3.7806,3.7827,3.8001,3.792,3.7941,3.7964,3.8014,3.8016,3.8046,3.8076,3.808,3.8041,3.811,3.8127,3.8232,3.8294,3.8177,3.8185,3.8509,3.8516,3.8522,3.8601,0,0,0,0,0,0,3.7799,3.7826,3.7875,3.7921,3.7945,3.8094,3.8018,3.802,3.806,3.8053,3.8103,3.8108,3.8108,3.822,3.8239,3.8303,3.8191,3.8504,3.8512,3.852,3.8592,3.8609,3.8623,0,0,0,0,0,3.7791,3.7893,3.7878,3.7899,3.8008,3.8097,3.8111,3.811,3.8065,3.8115,3.8134,3.8106,3.8285,3.8231,3.8253,3.832,3.85,3.851,3.8519,3.8585,3.8606,3.8623,0,0,0,0,0,0,3.7854,3.7899,3.7882,3.8003,3.8047,3.8089,3.8151,3.8132,3.8189,3.818,3.8176,3.8188,3.8296,3.8319,3.8258,3.8447,3.8385,3.84,3.8428,3.8448,3.8463,3.8454,3.8198,0,0,0,0,0,3.7882,3.7951,3.7987,3.809,3.8112,3.8128,3.8167,3.8163,3.8208,3.8226,3.8253,3.8298,3.8364,3.8407,3.847,3.8596,3.8606,3.8653,3.8668,3.8681,3.8693,3.876,3.8781,3.8557,3.8557,3.8557,0,0,3.794,3.7973,3.8017,3.8103,3.8136,3.8207,3.8144,3.8222,3.8275,3.8238,3.8338,3.836,3.8409,3.8525,3.8577,3.8547,3.8757,3.8694,3.8703,3.8709,3.8772,3.8793,3.8812,3.8564,3.8563,3.8562,0,0,3.8082,3.8115,3.8204,3.8238,3.829,3.8299,3.8321,3.8366,3.8379,3.848,3.8453,3.8516,3.863,3.8666,3.8699,3.8856,3.8831,3.8876,3.8956,3.9021,3.9039,3.9055,3.9109,3.9128,3.8889,3.8889,3.8889,0,3.8148,3.8254,3.8252,3.8332,3.837,3.834,3.8429,3.8463,3.8532,3.8559,3.8525,3.8667,3.8698,3.8821,3.8859,3.8888,3.8912,3.887,3.9037,3.9052,3.9067,3.9118,3.9139,3.8894,3.8893,3.8893,3.8892,0,3.8332,3.8406,3.8472,3.8539,3.8584,3.8669,3.8679,3.8725,3.8717,3.8731,3.8833,3.887,3.8939,3.8968,3.8961,3.909,3.907,3.9037,3.8974,3.9093,3.9141,3.9161,3.8901,3.8899,3.8898,3.8897,0,0,3.8515,3.858,3.8604,3.8633,3.8688,3.8745,3.8828,3.8896,3.8935,3.8984,3.9053,3.915,3.9119,3.9157,3.9154,3.9212,3.9331,3.9171,3.9172,3.9198,3.9474,3.9497,3.952,3.9317,3.932,3.9323,3.9469,0,3.866,3.8804,3.8805,3.8938,3.9006,3.8978,3.9051,3.9092,3.9107,3.9166,3.9183,3.9252,3.9207,3.9229,3.9285,3.9305,3.9386,3.9295,3.9379,3.9382,3.9365,3.9546,3.9571,3.9707,3.9488,3.9492,3.9494,0,3.8847,3.8902,3.9042,3.9085,3.9114,3.9179,3.924,3.9298,3.9344,3.9351,3.9393,3.9381,3.9465,3.9402,3.9517,3.9454,3.9489,3.9504,3.951,3.9516,3.9444,3.9555,3.975,3.977,3.9524,3.9522,3.9519,0,3.8964,3.9073,3.917,3.9197,3.9251,3.9297,3.9322,3.9364,3.9404,3.9458,3.9484,3.9547,3.9582,3.9631,3.9636,3.959,3.9752,3.9689,3.9758,3.9758,3.9792,3.9789,3.9993,3.9818,3.9818,3.9818,3.9817,0,3.9124,3.921,3.9223,3.9283,3.9379,3.9379,3.9473,3.9494,3.9532,3.9595,3.9576,3.9636,3.964,3.9701,3.9706,3.98,3.9816,3.9823,3.9823,3.9824,3.9823,3.9845,3.9835,3.9823,3.9822,3.9821,3.982,0,3.927,3.9283,3.9387,3.943,3.9442,3.9511,3.9547,3.9604,3.9618,3.9697,3.9716,3.9738,3.9809,3.9819,3.9903,3.9906,4.0018,4.0009,4.0002,4.0,4.0068,4.0061,4.0292,4.0322,4.0129,4.0131,4.0133,0,3.937,3.9436,3.9485,3.9526,3.9553,3.9619,3.966,3.9663,3.9706,3.9763,3.9813,3.9882,3.9937,4.0052,4.0075,4.0138,4.013,4.0206,4.0139,4.0137,4.0128,4.0123,4.0129,4.0219,4.0221,4.0222,4.0224,0,3.9546,3.9549,3.9608,3.967,3.9719,3.9768,3.9814,3.9849,3.9857,3.9907,3.9979,4.0022,4.0107,4.0175,4.0238,4.0263,4.0245,4.0245,4.0264,4.0264,4.0256,4.0259,4.0035,4.0239,4.0238,4.0237,4.0236,4.0235,3.967,3.9727,3.977,3.9837,3.9872,3.9916,3.997,3.9991,4.0051,4.012,4.0118,4.0197,4.0241,4.0324,4.0354,4.0415,4.039,4.0419,4.0425,4.0432,4.0437,4.0249,4.0427,4.0427,4.0426,4.0426,4.0426,0,3.9843,3.987,3.9931,3.9996,4.0048,4.0027,4.0077,4.0122,4.0192,4.0234,4.0289,4.0371,4.0438,4.0466,4.0531,4.0575,4.0568,4.0592,4.0587,4.0593,4.0457,4.0433,4.0596,4.0596,4.0596,4.0596,4.0596,4.0596,3.9939,4.0033,4.0041,4.0152,4.0178,4.0255,4.0285,4.0324,4.0358,4.0451,4.0506,4.0524,4.0561,4.0628,4.0688,4.0695,4.0718,4.0746,4.0748,4.062,4.0603,4.0586,4.0563,4.0752,4.0752,4.0879,4.088,4.0881]},{"header":{"parameterUnit":"m.s-1","parameterCategory":1,"la1":30.2991,"la2":30.254,"lo1":-89.0895,"lo2":-89.0444,"dy":0.0017,"dx":0.0017,"nx":28,"ny":28,"refTime":"2023-08-25T03:00:00:Z","depth":0,"parameterNumber":3,"parameterNumberName":"V-component_of_WINDS"},"data":[0,0,0,0,0,0,0,0,0,0,0,0,0,0,0,0,0,0,0,0,0,0,0,0,0,0,0,0,0,0,0,0,0,0,0,0,0,0,0,0,0,0,0,0,0,0,0,0,0,0,0,0,0,0,0,0,0,0,0.7798,0.7798,0,0.7826,0.7826,0.7826,0.78,0.7798,0.7797,0.7796,0.7825,0.7827,0.7828,0,0,0,0,0,0,0,0,0,0,0,0,0,0.7722,0.7724,0.7798,0.7798,0.7799,0.7826,0.7826,0.7826,0.78,0.7798,0.7797,0.7796,0.7824,0.7827,0.7829,0,0,0,0,0,0,0,0,0,0,0,0,0,0.7753,0.7724,0.7798,0.7789,0.7788,0.7826,0.7826,0.7827,0.78,0.7798,0.7797,0.7795,0.7824,0.7826,0.7829,0.7877,0,0,0.7837,0.7838,0,0,0,0,0,0,0,0,0.7751,0.7756,0.779,0.7789,0.7789,0.7808,0.781,0.7843,0.78,0.7796,0.7796,0.7795,0.7821,0.7823,0.7832,0.7878,0.788,0.7837,0.7839,0.784,0.7841,0,0,0,0,0,0,0,0.7749,0.7754,0.7809,0.779,0.779,0.7783,0.7786,0.7816,0.7817,0.7796,0.7794,0.7798,0.782,0.783,0.7832,0.788,0.7837,0.7839,0.7841,0.7842,0.7966,0.7968,0,0,0,0,0,0,0.7748,0.7753,0.7808,0.781,0.7766,0.7786,0.7789,0.7803,0.7816,0.7817,0.7799,0.7796,0.7826,0.7829,0.7833,0.789,0.784,0.7842,0.7844,0.7965,0.7967,0.7969,0,0,0,0,0,0,0.7747,0.7753,0.7807,0.7781,0.7787,0.7789,0.7805,0.7805,0.7814,0.7819,0.7819,0.7809,0.7825,0.783,0.7866,0.7891,0.7844,0.7846,0.7963,0.7965,0.7968,0.8005,0,0,0,0,0,0,0.7744,0.7753,0.7771,0.7781,0.7789,0.784,0.7807,0.7806,0.7819,0.7815,0.7828,0.7828,0.7824,0.7862,0.7869,0.7894,0.7848,0.7961,0.7964,0.7967,0.8001,0.8008,0.8014,0,0,0,0,0,0.7742,0.7781,0.7772,0.7779,0.7812,0.7841,0.7845,0.784,0.7821,0.7839,0.7842,0.7828,0.7887,0.7866,0.7873,0.7899,0.7959,0.7963,0.7967,0.7999,0.8007,0.8014,0,0,0,0,0,0,0.7774,0.7782,0.7773,0.7816,0.7828,0.7837,0.786,0.7849,0.7866,0.7863,0.7855,0.7858,0.7896,0.7901,0.7878,0.7946,0.792,0.7925,0.7942,0.795,0.7956,0.7954,0.785,0,0,0,0,0,0.7786,0.7809,0.7815,0.7853,0.7859,0.7859,0.7871,0.7866,0.7878,0.7883,0.7888,0.79,0.7921,0.7936,0.7956,0.8002,0.8004,0.8023,0.8029,0.8035,0.804,0.8064,0.8073,0.7981,0.7981,0.7981,0,0,0.7812,0.7819,0.7834,0.786,0.7868,0.7892,0.7863,0.789,0.7908,0.7887,0.7922,0.7926,0.7939,0.798,0.7999,0.7986,0.8065,0.804,0.8044,0.8046,0.8069,0.8078,0.8085,0.7984,0.7984,0.7983,0,0,0.787,0.7878,0.791,0.7919,0.7932,0.7931,0.7939,0.7949,0.7951,0.7986,0.797,0.7991,0.8028,0.8038,0.8048,0.8109,0.8097,0.8116,0.815,0.8173,0.8181,0.8187,0.8209,0.8217,0.812,0.8121,0.8121,0,0.7901,0.7936,0.7928,0.7956,0.7968,0.7949,0.7982,0.7991,0.801,0.8018,0.8003,0.8049,0.8056,0.8099,0.8114,0.8123,0.8131,0.8115,0.818,0.8186,0.8192,0.8213,0.8221,0.8123,0.8123,0.8122,0.8122,0,0.7972,0.7997,0.8022,0.804,0.8054,0.8084,0.8081,0.8096,0.8089,0.8089,0.8125,0.8133,0.8154,0.8163,0.8157,0.8206,0.8197,0.8181,0.8155,0.8203,0.8223,0.8231,0.8126,0.8125,0.8125,0.8124,0,0,0.8053,0.8066,0.8075,0.8083,0.8096,0.8115,0.8144,0.8164,0.8177,0.8191,0.8215,0.8246,0.8231,0.8242,0.8236,0.8257,0.8305,0.8238,0.8239,0.8251,0.8359,0.8371,0.838,0.8296,0.8298,0.8299,0.8358,0,0.8112,0.8163,0.8156,0.8204,0.8227,0.8209,0.8234,0.8244,0.8245,0.8264,0.8265,0.8288,0.8266,0.8273,0.8293,0.8295,0.8326,0.829,0.8318,0.832,0.8316,0.839,0.8404,0.8459,0.8365,0.8366,0.8367,0,0.8188,0.8204,0.8254,0.8263,0.8272,0.8295,0.8312,0.8331,0.8342,0.8341,0.8353,0.8344,0.8372,0.8344,0.8384,0.8359,0.837,0.8373,0.8375,0.8378,0.8347,0.8396,0.8476,0.8485,0.8379,0.8378,0.8377,0,0.8242,0.8276,0.831,0.8318,0.8329,0.8345,0.835,0.8359,0.8372,0.8387,0.8395,0.8413,0.8424,0.8438,0.8433,0.8414,0.8474,0.8445,0.8474,0.8474,0.8488,0.8487,0.8572,0.8494,0.8494,0.8494,0.8494,0,0.8309,0.8341,0.8335,0.8356,0.8391,0.8382,0.8417,0.842,0.8428,0.8449,0.8435,0.8455,0.8447,0.8467,0.8464,0.8496,0.8501,0.8501,0.85,0.8503,0.8503,0.851,0.8507,0.8496,0.8496,0.8495,0.8495,0,0.8376,0.8373,0.8409,0.8416,0.8419,0.8444,0.845,0.8469,0.8469,0.8496,0.8502,0.8501,0.8523,0.852,0.8545,0.8542,0.8583,0.8577,0.858,0.8578,0.8607,0.8604,0.87,0.8712,0.8626,0.8627,0.8628,0,0.8419,0.8443,0.8452,0.8465,0.8472,0.8493,0.8505,0.8498,0.8511,0.8525,0.8543,0.8564,0.8581,0.8617,0.8619,0.8637,0.8632,0.8664,0.8635,0.8637,0.8633,0.8631,0.8634,0.867,0.8671,0.8672,0.8672,0,0.8496,0.8493,0.8512,0.853,0.8545,0.8558,0.8571,0.8582,0.8575,0.8591,0.8614,0.8627,0.8652,0.8673,0.869,0.8695,0.8683,0.8681,0.8689,0.8692,0.8693,0.8693,0.8596,0.868,0.8679,0.8678,0.8678,0.8678,0.8553,0.8573,0.8582,0.8603,0.8611,0.8623,0.8641,0.8643,0.8662,0.8681,0.8676,0.8701,0.8711,0.8733,0.874,0.876,0.8748,0.8759,0.8762,0.8765,0.8768,0.8689,0.8763,0.8762,0.8762,0.8762,0.8762,0,0.8629,0.8634,0.8653,0.867,0.8687,0.8673,0.8686,0.87,0.8723,0.8733,0.8749,0.8775,0.8795,0.8798,0.8816,0.8832,0.8827,0.8837,0.8836,0.8837,0.8777,0.8769,0.8841,0.8841,0.8841,0.8841,0.8841,0.8841,0.8671,0.8704,0.8702,0.8739,0.8744,0.8768,0.8777,0.8787,0.8795,0.8824,0.8841,0.8842,0.8849,0.8869,0.8886,0.8887,0.8894,0.8907,0.8905,0.8849,0.8842,0.8834,0.8826,0.8909,0.8909,0.8963,0.8964,0.8964]}]]